Flag for China Weather past 2 weeks in Chongqing, Chongqing Municipality, China

Now
66 °F

Light rain. Fog.


Feels Like: 66 °F
Forecast: 69 / 78 °F
Wind: 1 mph from Southeast

Location: Chongqing Airport

Current Time: Sep 19, 2014 at 6:00:41 AM

Latest Report: Sep 19, 2014 at 5:00 AM


Visibility: 1 mi

Pressure: 30.01 "Hg

Humidity: 100%

Dew point: 66 °F

Location of ChongqingLocation

Historic Weather in Chongqing — Graph

°F

Chongqing temperature yesterday

Maximum temperature yesterday: 70 °F (at 12:00 AM)
Minimum temperature yesterday: 68 °F (at 3:00 AM)
Average temperature yesterday: 68 °F

Past Weeks' High & Low Weather Summary

 TemperatureHumidityPressure
High93 °F (Sep 10, 2:00 PM)100% (Sep 19, 2:00 AM)30.04 "Hg (Sep 19, 2:00 AM)
Low66 °F (Sep 4, 10:00 AM)49% (Sep 11, 2:00 PM)29.56 "Hg (Sep 11, 3:00 PM)
Average77 °F80%29.78 "Hg
* Reported Sep 4 5:00 AM — Sep 19 5:00 AM, Chongqing, Weather by CustomWeather, © 2014

Note: Actual official high and low records may vary slightly from our data, if they occured in-between our weather recording intervals... More about our weather records

Advertising

Chongqing weather history for previous 24 hours

 ConditionsComfort  
Time TempWeatherWind HumidityBarometerVisibility
5:00 AM
Sep 19
66 °FLight rain. Fog.1 mph100%30.01 "Hg1 mi
4:00 AM66 °FLight rain. Fog.3 mph100%30.01 "Hg1 mi
3:00 AM66 °FLight rain. Fog.3 mph100%30.01 "Hg1 mi
2:00 AM66 °FLight rain. Fog.3 mph100%30.01 "Hg1 mi
1:00 AM68 °FLight rain. Fog.3 mph94%30.04 "Hg1 mi
12:00 AM68 °FLight rain. Fog.3 mph94%30.04 "Hg1 mi
11:00 PM
Sep 18
68 °FLight rain. Fog.3 mph94%30.04 "Hg1 mi
10:00 PM68 °FLight rain. Fog.3 mph94%30.04 "Hg1 mi
9:00 PM68 °FLight rain. Fog.3 mph94%30.04 "Hg1 mi
8:00 PM68 °FLight rain. Fog.6 mph94%30.01 "Hg1 mi
7:00 PM68 °FLight rain. Fog.1 mph94%30.01 "Hg2 mi
6:00 PM68 °FLight rain. Fog.3 mph94%29.98 "Hg2 mi
5:00 PM68 °FRain. Fog.3 mph94%29.98 "Hg2 mi
4:00 PM68 °FRain. Fog.3 mph94%29.98 "Hg3 mi
3:00 PM68 °FRain. Fog.3 mph94%29.98 "Hg2 mi
2:00 PM68 °FRain. Fog.6 mph88%29.98 "Hg2 mi
1:00 PM68 °FRain. Fog.6 mph94%30.01 "Hg2 mi
12:00 PM68 °FRain. Fog.3 mph94%30.01 "Hg2 mi
11:00 AM68 °FRain. Fog.3 mph94%30.04 "Hg2 mi
10:00 AM68 °FRain. Fog.3 mph94%30.01 "Hg2 mi
9:00 AM68 °FRain. Fog.3 mph94%30.01 "Hg2 mi
8:00 AM68 °FRain. Fog.3 mph94%29.98 "Hg2 mi
7:00 AM68 °FRain. Fog.6 mph94%29.98 "Hg2 mi
6:00 AM68 °FHeavy rain. Fog.6 mph94%29.95 "Hg2 mi
Weather by CustomWeather, © 2014

See weather overviewHow to use our weather pages